Погода в Коммунаре

Россия / Костромская область     58°09′58″N   43°32′59″E
темп.,
°C
ветер,
м/с
пор.,
м/с
влажн.,
%
обл.,
%
осадки,
мм/ч
давл.,
гПа
погр.,
м
28 октября, чт
чт2800:00+5з51191100 0.1 1006931
03:00+5з41088100 0.2 1006749
06:00+5зюз41092100 0.1 1006527
09:00+5зюз3990100 0.1 1007476
12:00+5з3690100 0.3 1008828
15:00+5сз2695100 1.3 1010842
18:00+2ссв4983100 0.2 1015652
21:00−1ссв48785 0.2 1019543
29 октября, пт
пт2900:00−3ссв37775 0.0 1022424
03:00−3св13775 0.0 1024268
06:00−2ююв1370100 0.0 1025261
09:00−1ю366372 0.0 1025382
12:00+1ююз4750100 0.0 1024607
15:00+2ю51161100 0.0 1022617
18:00+2ююз51495100 0.8 1020756
21:00+4юз51394100 0.9 1018600
30 октября, сб
сб3000:00+5зюз51396100 0.0 1017541
03:00+6зюз51496100 0.0 1017546
06:00+5зюз51492100 0.0 1017474
09:00+7з5149072 0.0 1018526
12:00+10з4128128 0.0 1018641
15:00+9з410832 0.0 1019620
18:00+6зюз399523 0.0 1021256
21:00+5зюз259745 0.0 1022110
31 октября, вс
вс3100:00+4юз269833 0.0 1022122
03:00+4юз289865 0.0 1023169
06:00+5юз3109837 0.0 1021235
09:00+6юз41292100 0.0 1021430
12:00+9зюз4117886 0.0 1021540
15:00+9зюз41179100 0.0 1020569
18:00+6зюз31188100 0.0 1021388
21:00+5юз31092100 0.0 1021295
1 ноября, пн
пн100:00+4юз399445 0.0 1021257
03:00+3юз31094100 0.0 1020282
06:00+4юз41191100 0.0 1019370
09:00+4юз3118892 0.0 1019396
12:00+7зюз4107585 0.0 1019532
15:00+7зюз387963 0.0 1019470
18:00+5юз3993100 0.0 1020237
21:00+4юз2795100 0.0 1020164